Address 0x20000b9b01e93a39db9d286e9264eff7f2af16e9

Txn Hash
Block
From
To
Value [Txn Fee]
0x02dad43a48b293b086800a68d4d0ed72052be18fb5264bfc5be5669ef1669aca80786392021-04-18 6:08:103 mins ago0x20000b9b01e93a39db9d286e9264eff7f2af16e9OUT 0x002f0a794a41f90256e717887cc682f49e7a3b300 BNB0.00198966
0x202559b3f041c007befaaf02d1f823876394aa64eaa14087a6a76ded1155a75180784192021-04-18 5:57:1014 mins ago0x20000b9b01e93a39db9d286e9264eff7f2af16e9OUT 0x7e22e23162423d679dd5088f91d0ca6ff95606fa0 BNB0.00198433
0x7fd3dd6e8c30c290b46bfdfcc3a57ecab73b8b6808cc1555cb00ff01c654ed4280784172021-04-18 5:57:0414 mins ago0x20000b9b01e93a39db9d286e9264eff7f2af16e9OUT 0x002f0a794a41f90256e717887cc682f49e7a3b300 BNB0.00198966
0x53bd4d3839f6a5b7daafd24415610d2245ba58267f613d934b36456ff33dbd7680782172021-04-18 5:47:0424 mins ago0x20000b9b01e93a39db9d286e9264eff7f2af16e9OUT 0x7e22e23162423d679dd5088f91d0ca6ff95606fa0 BNB0.00198433
0x75181849cb07ab1298d6aabca4ff9d13371c35ec87f3bf460fa7396f9377090e80782172021-04-18 5:47:0424 mins ago0x20000b9b01e93a39db9d286e9264eff7f2af16e9OUT 0x002f0a794a41f90256e717887cc682f49e7a3b300 BNB0.00198966
0x73460a30b6b9e7c3f437f397b652743b9c93b881282095191b59be1db2d8bfcb80781192021-04-18 5:42:1029 mins ago0x20000b9b01e93a39db9d286e9264eff7f2af16e9OUT 0x002f0a794a41f90256e717887cc682f49e7a3b300 BNB0.00198958
0x5b51292c060b79fefae7c2464db1e8a449bb23cb2f62f15bd0ff40f3d0cb965980780992021-04-18 5:41:1030 mins ago0x20000b9b01e93a39db9d286e9264eff7f2af16e9OUT 0x7e22e23162423d679dd5088f91d0ca6ff95606fa0 BNB0.00198425
0x8ffe1b3eae70c3291a5fa87fb3f8d1190751e4a6bad7794d3759fdf7940320d780780172021-04-18 5:37:0434 mins ago0x20000b9b01e93a39db9d286e9264eff7f2af16e9OUT 0x002f0a794a41f90256e717887cc682f49e7a3b300 BNB0.00198958
0x3508f69e90f157fa4bc54829354f66357843dce20f2628704cbd8e8af51a0a6980778192021-04-18 5:27:1044 mins ago0x20000b9b01e93a39db9d286e9264eff7f2af16e9OUT 0x002f0a794a41f90256e717887cc682f49e7a3b300 BNB0.00198958
0xc9f53e3c74b68a0f7afdf0064fc2574d8211c8eb02823c5c46942513ffcf37ba80778192021-04-18 5:27:1044 mins ago0x20000b9b01e93a39db9d286e9264eff7f2af16e9OUT 0x7e22e23162423d679dd5088f91d0ca6ff95606fa0 BNB0.00198425
0x453a790c5fc8558192fa641f35c0b1aecac277ccdd24b8c7b7c5b0d50b5a097380777192021-04-18 5:22:1049 mins ago0x20000b9b01e93a39db9d286e9264eff7f2af16e9OUT 0x002f0a794a41f90256e717887cc682f49e7a3b300 BNB0.00122828
0x00ab3528b4d041fb2c1fce921802bbf2297572e9de1b91020f6034d69887906e80775392021-04-18 5:13:1058 mins ago0x20000b9b01e93a39db9d286e9264eff7f2af16e9OUT 0x7e22e23162423d679dd5088f91d0ca6ff95606fa0 BNB0.00198433
0xe519ad0cca6bc26513e558fc8792dfb4686a5d50de7fa2cbb6ff613529fea8ca80774992021-04-18 5:11:101 hr ago0x20000b9b01e93a39db9d286e9264eff7f2af16e9OUT 0x7e22e23162423d679dd5088f91d0ca6ff95606fa0 BNB0.00198433
0xa2438d03b9d3fef3d0b6cdcf6223b78e4c4f6c7d8a2c6ab38520f7a414aac71680774772021-04-18 5:10:041 hr 1 min ago0x20000b9b01e93a39db9d286e9264eff7f2af16e9OUT 0x002f0a794a41f90256e717887cc682f49e7a3b300 BNB0.00198966
0x7ba0a115246fbf09adbb7de20bbd15e7a456dab432428d0c8dd663e9d564f6cc80774592021-04-18 5:09:101 hr 2 mins ago0x20000b9b01e93a39db9d286e9264eff7f2af16e9OUT 0x7e22e23162423d679dd5088f91d0ca6ff95606fa0 BNB0.00116287
0xf07526fa2ffb0f944e5921594daf91e30441ddbbd1bc4fe00ffcbf55b530fa9e80774592021-04-18 5:09:101 hr 2 mins ago0x20000b9b01e93a39db9d286e9264eff7f2af16e9OUT 0x7e22e23162423d679dd5088f91d0ca6ff95606fa0 BNB0.00198433
0xb337cf27ba8cfaefa0f601f7fda93efdc4ec62a1312e03e314f7699a9496196c80774172021-04-18 5:07:041 hr 4 mins ago0x20000b9b01e93a39db9d286e9264eff7f2af16e9OUT 0x002f0a794a41f90256e717887cc682f49e7a3b300 BNB0.00198966
0x60a0b483d20f24c80273fc33846cbf3d4041d8440ccbb71c86b93179f4f3cfd080773592021-04-18 5:04:101 hr 7 mins ago0x20000b9b01e93a39db9d286e9264eff7f2af16e9OUT 0x7e22e23162423d679dd5088f91d0ca6ff95606fa0 BNB0.00198425
0xf91123b7cfaa9ebe80d46d2c30fee5e7c9f6268494c561ea6336bff36ee167d880773592021-04-18 5:04:101 hr 7 mins ago0x20000b9b01e93a39db9d286e9264eff7f2af16e9OUT 0x002f0a794a41f90256e717887cc682f49e7a3b300 BNB0.00198946
0xf9378c1f10b625dba2b559d2f1ce93921f9dadd7c825c7215c55923ec69c545a80771192021-04-18 4:52:101 hr 19 mins ago0x20000b9b01e93a39db9d286e9264eff7f2af16e9OUT 0x002f0a794a41f90256e717887cc682f49e7a3b300 BNB0.0012282
0x3a895119af47ba8136882ae971e4f3dc3c77bf61b420105d7730362722f3a2ed80770792021-04-18 4:50:101 hr 21 mins ago0x20000b9b01e93a39db9d286e9264eff7f2af16e9OUT 0x7e22e23162423d679dd5088f91d0ca6ff95606fa0 BNB0.00198425
0x9c75bb8f92036f484aaeac70a9d3c83c2fe5e310eb89e14ba304bda4c2ed65c280770192021-04-18 4:47:101 hr 24 mins ago0x20000b9b01e93a39db9d286e9264eff7f2af16e9OUT 0x002f0a794a41f90256e717887cc682f49e7a3b300 BNB0.00198958
0xc09f363381b9dc0a469b33b1ca3d22a2cd8a6f44d17dcbe17494e43185b7063d80769972021-04-18 4:46:041 hr 25 mins ago0x20000b9b01e93a39db9d286e9264eff7f2af16e9OUT 0x7e22e23162423d679dd5088f91d0ca6ff95606fa0 BNB0.00198425
0x9ea0a845909c524d8f4d0cc90bc3d02f8109cf5368a511944499ffd7c517d1cf80769792021-04-18 4:45:101 hr 26 mins ago0x20000b9b01e93a39db9d286e9264eff7f2af16e9OUT 0x002f0a794a41f90256e717887cc682f49e7a3b300 BNB0.00205558
0xd823a4632bcb8a983ecbe9d37a2ac05a2869267b601250286d169f685958806180769592021-04-18 4:44:101 hr 27 mins ago0x20000b9b01e93a39db9d286e9264eff7f2af16e9OUT 0x002f0a794a41f90256e717887cc682f49e7a3b300 BNB0.00198958
[ Download CSV Export 
Parent Txn Hash Block From To Value
Loading

Contract Name:
0 BNB

Compiler Version
0

Optimization Enabled:
0 BNB

Other Settings:
-NA-
Block Transaction Gas Used Reward
Age Block Fee Address BC Fee Address Voting Power Jailed Incoming
Block Uncle Number Difficulty Gas Used Reward
Loading